User: anonymous   Login
Location: ActonStarParty
(42.4766°N, 71.4538°W)
Time: 09:52:00
(UTC-04:00)
Language:

Cosmos 1300 - Orbit

View from above orbital plane
View from above orbital plane
View from above satellite
View from above satellite

Ground track
Ground track

The orbit data is extracted from the following two-line orbital elements,

1 12785U 81082A   15212.55100220  .00001628  00000-0  86235-4 0  9993
2 12785 082.5035 031.2293 0002906 097.1944 318.6876 15.14736915847829
Epoch (UTC): 31 July 2015 13:13:26
Eccentricity: 0.0002906
inclination: 82.5035°
perigee height: 520 km
apogee height: 524 km
right ascension of ascending node: 31.2293°
argument of perigee: 97.1944°
revolutions per day: 15.14736915
mean anomaly at epoch: 318.6876°
orbit number at epoch: 84782

The dashed part of the orbit path shows where the satellite is in the earth's shadow,  

DLR